Content
SEND FEEDBACK

Daily
Averages
Monthly
Summary
United States of America

YIGO, GUAM


Home > North America > United States > Guam
Elevation: 530 feet     Latitude: 13 32N     Longitude: 144 53E

WEATHER
 
SELECT A DAY
Number of Records: 213,834;   Date Range: 1/1/95 - 10/22/14
 
SHARE

PRINT THIS DATA

[ ← Previous Day ]
WEATHER ALMANAC - JUNE 21, 2013
[ Next Day → ]
[ °C ]   °F
Weather ElementAverageHighLow
Temperature86 °F91 °F (12:54 pm)82 °F (2:54 am)
Dewpoint75.5 °F77 °F (1:07 am)73.9 °F (6:54 pm)
Humidity71.2 %85 % (2:54 am)59 % (12:54 pm)
Barometer29.88 in29.91 in (8:54 am)29.84 in (3:54 pm)
Wind Speed12.4 mph18.4 mph (11:54 am)
Wind Gust26.5 mph (9:54 am)
Weather ElementAverage
Visibility9.7 mi
Wind DirectionENE (82.3 °)

Weather ElementTotal
Precipitation0.08 in
Cooling Degree Days21.5 (Base 65)
Growing Degree Days36.5 (Base 50)
Averaged from 30 records on June 21, 2013
WEATHER CONDITIONS BREAKOUT
WIND DIRECTION BREAKOUT
WEATHER BY HOUR - JUNE 21, 2013
[ °C ]   °F
Local TimeTemperatureDewpointHumidityBarometerVisibilityWind DirectionWind SpeedGust SpeedPrecipitationEventsConditions
1:07 AM82.4 °F77.0 °F84 %29.90 in10.0 miEast (80°)6.9 mphMostly Cloudy
1:18 AM84.2 °F75.2 °F74 %29.89 in10.0 miEast (80°)9.2 mphScattered Clouds
1:54 AM82.9 °F77.0 °F82 %29.86 in10.0 miENE (70°)11.5 mph0.06 inMostly Cloudy
2:54 AM82.0 °F77.0 °F85 %29.86 in10.0 miENE (70°)9.2 mph0.01 inPartly Cloudy
3:54 AM82.0 °F77.0 °F85 %29.86 in10.0 miENE (70°)10.4 mph0.00 inPartly Cloudy
4:54 AM82.0 °F75.9 °F82 %29.86 in10.0 miEast (80°)11.5 mphClear
5:54 AM82.9 °F75.9 °F79 %29.87 in10.0 miEast (80°)10.4 mph0.01 inMostly Cloudy
6:00 AM82.4 °F75.2 °F79 %29.89 in10.0 miEast (80°)9.2 mphClear
6:54 AM82.9 °F77.0 °F82 %29.89 in10.0 miEast (80°)5.8 mphPartly Cloudy
7:54 AM84.9 °F75.0 °F72 %29.89 in10.0 miEast (80°)12.7 mph0.00 inClear
8:54 AM87.1 °F75.9 °F69 %29.91 in10.0 miEast (80°)15.0 mph23.0 mphScattered Clouds
9:54 AM89.1 °F75.9 °F65 %29.90 in10.0 miENE (70°)16.1 mph26.5 mphScattered Clouds
10:54 AM89.1 °F75.0 °F63 %29.90 in10.0 miEast (90°)17.3 mph26.5 mphPartly Cloudy
11:54 AM90.0 °F75.9 °F63 %29.89 in10.0 miENE (70°)18.4 mph25.3 mphScattered Clouds
12:54 PM91.0 °F75.0 °F59 %29.88 in10.0 miEast (80°)16.1 mph24.2 mphScattered Clouds
1:54 PM91.0 °F75.0 °F59 %29.86 in10.0 miEast (80°)17.3 mph24.2 mphMostly Cloudy
2:54 PM90.0 °F75.9 °F63 %29.85 in10.0 miEast (90°)13.8 mphScattered Clouds
3:32 PM87.8 °F75.2 °F66 %29.87 in10.0 miEast (100°)16.1 mph23.0 mphMostly Cloudy
3:49 PM89.6 °F75.2 °F62 %29.86 in10.0 miEast (100°)13.8 mph23.0 mphScattered Clouds
3:54 PM88.0 °F75.0 °F65 %29.84 in10.0 miESE (110°)12.7 mph21.9 mphScattered Clouds
4:54 PM88.0 °F75.0 °F65 %29.84 in10.0 miEast (80°)16.1 mphScattered Clouds
5:13 PM87.8 °F75.2 °F66 %29.87 in1.8 miEast (100°)10.4 mph19.6 mphPartly Cloudy
5:20 PM87.8 °F75.2 °F66 %29.87 in10.0 miEast (90°)15.0 mph20.7 mphPartly Cloudy
5:54 PM87.1 °F75.0 °F67 %29.85 in10.0 miEast (80°)12.7 mphPartly Cloudy
6:54 PM84.9 °F73.9 °F69 %29.86 in10.0 miEast (80°)11.5 mphPartly Cloudy
7:54 PM84.9 °F75.0 °F72 %29.88 in10.0 miEast (80°)11.5 mphPartly Cloudy
8:54 PM84.9 °F75.0 °F72 %29.89 in10.0 miEast (80°)15.0 mph20.7 mphPartly Cloudy
9:54 PM84.9 °F75.0 °F72 %29.91 in10.0 miEast (80°)8.1 mphPartly Cloudy
10:54 PM84.9 °F75.9 °F74 %29.91 in10.0 miEast (80°)8.1 mphPartly Cloudy
11:54 PM84.0 °F75.0 °F74 %29.91 in10.0 miEast (80°)9.2 mph0.00 inScattered Clouds
Hourly data recorded from PGUM, located miles away from Yigo, Guam







STORIES FROM OUR PARTNERS